Location: St. Louis
(38.6270°N, 90.1994°W)
Time: 08:54:16
(UTC-06:00)

SR - Pass Details

Date: 02 December 2021
Orbit: 582 x 872 km, 66.7° (Epoch: 21 January)

Event Time Altitude Azimuth Distance (km) Brightness Sun altitude
Rises 08:51:09 0° 331° (NNW) 2,830 ? 16.2°
Reaches altitude 10° 08:53:20 10° 331° (NNW) 1,944 ? 16.5°
Maximum altitude 08:57:42 88° 244° (WSW) 628 ? 17.1°
Drops below altitude 10° 09:02:20 10° 154° (SSE) 2,060 ? 17.7°
Sets 09:04:42 0° 154° (SSE) 3,015 ? 18.0°
